Flag Weather past 2 weeks in Neuburg an der Donau, Bavaria, Germany

Now
37 °F

Passing clouds.


Feels Like: 34 °F
Forecast: 33 / 41 °F
Wind: 5 mph from Northeast

Location: Neuburg / Donau

Current Time: Nov 26, 2014 at 7:59:48 AM

Latest Report: Nov 26, 2014 at 7:20 AM


Visibility: N/A

Pressure: 30.07 "Hg

Humidity: 81%

Dew point: 32 °F

Location of Neuburg an der DonauLocation

Historic Weather in Neuburg an der Donau — Graph

°F

Neuburg an der Donau temperature yesterday

Maximum temperature yesterday: 45 °F (at 10:20 AM)
Minimum temperature yesterday: 39 °F (at 9:20 PM)
Average temperature yesterday: 43 °F

Past Weeks' High & Low Weather Summary

 TemperatureHumidityPressure
High50 °F (Nov 12, 2:20 PM)100% (Nov 11, 6:20 AM)30.30 "Hg (Nov 11, 6:20 AM)
Low30 °F (Nov 17, 4:20 AM)71% (Nov 20, 1:20 PM)29.47 "Hg (Nov 16, 1:20 AM)
Average43 °F93%29.95 "Hg
* Reported Nov 11 6:20 AM — Nov 26 6:20 AM, Neuburg an der Donau, Weather by CustomWeather, © 2014

Note: Actual official high and low records may vary slightly from our data, if they occured in-between our weather recording intervals... More about our weather records

Advertising

Neuburg an der Donau weather history for previous 24 hours

 ConditionsComfort  
Time TempWeatherWind HumidityBarometerVisibility
6:20 AM
Nov 26
37 °FPassing clouds.3 mph87%30.07 "HgN/A
5:20 AM37 °FChilly.5 mph87%30.07 "HgN/A
4:20 AM37 °FChilly.5 mph87%30.09 "HgN/A
3:20 AM37 °FChilly.5 mph87%30.09 "HgN/A
2:20 AM37 °FChilly.3 mph87%30.09 "HgN/A
1:20 AM37 °FChilly.5 mph87%30.12 "HgN/A
12:20 AM37 °FChilly.6 mph87%30.12 "HgN/A
11:20 PM
Nov 25
39 °FChilly.6 mph81%30.15 "HgN/A
10:20 PM39 °FChilly.7 mph81%30.15 "HgN/A
9:20 PM39 °FChilly.8 mph87%30.15 "HgN/A
8:20 PM41 °FQuite cool.7 mph81%30.15 "HgN/A
7:20 PM43 °FQuite cool.8 mph81%30.15 "HgN/A
6:20 PM43 °FQuite cool.6 mph81%30.15 "HgN/A
5:20 PM43 °FPassing clouds.8 mph87%30.18 "HgN/A
4:20 PM43 °FPartly sunny.6 mph87%30.18 "HgN/A
3:20 PM45 °FPartly sunny.6 mph81%30.18 "HgN/A
2:20 PM45 °FPartly sunny.6 mph87%30.18 "HgN/A
1:20 PM45 °FPartly sunny.7 mph87%30.21 "HgN/A
12:20 PM45 °FPartly sunny.8 mph87%30.21 "Hg5 mi
11:20 AM45 °FBroken clouds.6 mph87%30.24 "Hg4 mi
10:20 AM45 °FFog.7 mph87%30.24 "Hg3 mi
9:20 AM43 °FFog.6 mph93%30.24 "Hg3 mi
8:48 AM43 °FFog.5 mph93%30.24 "Hg3 mi
8:20 AM43 °FFog.5 mph93%30.24 "Hg3 mi
7:20 AM43 °FFog.5 mph93%30.24 "Hg2 mi
Weather by CustomWeather, © 2014

See weather overviewHow to use our weather pages